| time (UTC) | temp F | wind direction | speed MPH | gust MPH | rain 1hr in | rain 24hr in | rain mn in | humidity % | barometer mb |
| 20260509131505 | 61 | 166 | 4.0 | 7.0 | 0.00 | 0.02 | 0.00 | 88 | 1012.4 |
| 20260509131005 | 61 | 169 | 1.0 | 8.0 | 0.00 | 0.02 | 0.00 | 88 | 1012.8 |
| 20260509130504 | 60 | 198 | 3.0 | 8.0 | 0.00 | 0.02 | 0.00 | 88 | 1012.6 |
| 20260509130005 | 60 | 166 | 2.0 | 7.0 | 0.00 | 0.02 | 0.00 | 89 | 1012.7 |
| 20260509125504 | 60 | 142 | 1.0 | 7.0 | 0.00 | 0.02 | 0.00 | 89 | 1012.8 |
| 20260509125004 | 60 | 177 | 1.0 | 6.0 | 0.00 | 0.02 | 0.00 | 89 | 1012.7 |
| 20260509124504 | 59 | 236 | 1.0 | 6.0 | 0.00 | 0.02 | 0.00 | 89 | 1012.7 |
| 20260509124005 | 59 | 202 | 1.0 | 4.0 | 0.00 | 0.02 | 0.00 | 89 | 1012.8 |
| 20260509123504 | 59 | 191 | 1.0 | 4.0 | 0.00 | 0.02 | 0.00 | 91 | 1012.8 |
| 20260509123005 | 58 | 195 | 0.0 | 6.0 | 0.00 | 0.02 | 0.00 | 91 | 1013.0 |
| 20260509122505 | 58 | 205 | 1.0 | 6.0 | 0.00 | 0.02 | 0.00 | 91 | 1013.1 |
| 20260509122004 | 58 | 165 | 0.0 | 2.0 | 0.00 | 0.02 | 0.00 | 89 | 1013.0 |
| 20260509121525 | 58 | 161 | 1.0 | 7.0 | 0.00 | 0.02 | 0.00 | 89 | 1012.8 |
| 20260509121004 | 58 | 161 | 2.0 | 7.0 | 0.00 | 0.02 | 0.00 | 89 | 1012.5 |
| 20260509120505 | 57 | 172 | 3.0 | 6.0 | 0.00 | 0.02 | 0.00 | 91 | 1012.6 |
| 20260509120004 | 57 | 173 | 3.0 | 5.0 | 0.00 | 0.02 | 0.00 | 91 | 1012.7 |
| 20260509115525 | 56 | 218 | 1.0 | 6.0 | 0.00 | 0.02 | 0.00 | 91 | 1012.8 |
| 20260509115005 | 56 | 214 | 1.0 | 6.0 | 0.00 | 0.02 | 0.00 | 89 | 1012.8 |
| 20260509114504 | 56 | 154 | 3.0 | 5.0 | 0.00 | 0.02 | 0.00 | 91 | 1012.6 |
| 20260509114025 | 56 | 153 | 0.0 | 4.0 | 0.00 | 0.02 | 0.00 | 89 | 1012.8 |
| 20260509113504 | 56 | 153 | 2.0 | 5.0 | 0.00 | 0.02 | 0.00 | 89 | 1012.3 |
| 20260509113005 | 55 | 163 | 3.0 | 5.0 | 0.00 | 0.02 | 0.00 | 89 | 1012.4 |
| 20260509112504 | 55 | 176 | 0.0 | 3.0 | 0.00 | 0.02 | 0.00 | 89 | 1012.7 |
| 20260509112005 | 55 | 176 | 2.0 | 3.0 | 0.00 | 0.02 | 0.00 | 89 | 1012.8 |
| 20260509111505 | 55 | 176 | 1.0 | 4.0 | 0.00 | 0.02 | 0.00 | 88 | 1012.8 |
| 20260509111004 | 55 | 176 | 2.0 | 11.0 | 0.00 | 0.02 | 0.00 | 88 | 1013.0 |
| 20260509110504 | 55 | 176 | 1.0 | 11.0 | 0.00 | 0.02 | 0.00 | 88 | 1012.9 |
| 20260509110005 | 55 | 176 | 1.0 | 4.0 | 0.00 | 0.02 | 0.00 | 88 | 1013.0 |
| 20260509105504 | 55 | 177 | 0.0 | 3.0 | 0.00 | 0.02 | 0.00 | 88 | 1012.7 |
| 20260509105005 | 54 | 177 | 1.0 | 3.0 | 0.00 | 0.02 | 0.00 | 88 | 1012.8 |
| 20260509104504 | 54 | 177 | 2.0 | 3.0 | 0.00 | 0.02 | 0.00 | 89 | 1012.6 |
| 20260509104005 | 54 | 177 | 1.0 | 2.0 | 0.00 | 0.02 | 0.00 | 89 | 1012.5 |
| 20260509103504 | 54 | 177 | 1.0 | 2.0 | 0.00 | 0.02 | 0.00 | 89 | 1012.6 |
| 20260509103004 | 54 | 0 | 0.0 | 1.0 | 0.00 | 0.02 | 0.00 | 89 | 1012.3 |
| 20260509102505 | 54 | 0 | 0.0 | 1.0 | 0.00 | 0.02 | 0.00 | 89 | 1012.5 |
| 20260509102027 | 53 | 0 | 0.0 | 1.0 | 0.00 | 0.02 | 0.00 | 89 | 1012.3 |
| 20260509101505 | 53 | 177 | 0.0 | 2.0 | 0.00 | 0.02 | 0.00 | 89 | 1012.3 |
| 20260509101005 | 53 | 177 | 1.0 | 2.0 | 0.00 | 0.02 | 0.00 | 89 | 1012.2 |
| 20260509100504 | 53 | 177 | 1.0 | 2.0 | 0.00 | 0.02 | 0.00 | 89 | 1012.0 |
| 20260509100005 | 53 | 0 | 0.0 | 2.0 | 0.00 | 0.02 | 0.00 | 89 | 1012.2 |
| 20260509095525 | 53 | 0 | 0.0 | 2.0 | 0.00 | 0.02 | 0.00 | 88 | 1011.9 |
| 20260509095004 | 53 | 177 | 1.0 | 2.0 | 0.00 | 0.02 | 0.00 | 88 | 1012.0 |
| 20260509094505 | 53 | 177 | 1.0 | 2.0 | 0.00 | 0.02 | 0.00 | 88 | 1011.8 |
| 20260509094027 | 53 | 177 | 0.0 | 1.0 | 0.00 | 0.02 | 0.00 | 88 | 1011.9 |
| 20260509093504 | 52 | 0 | 0.0 | 0.0 | 0.00 | 0.02 | 0.00 | 88 | 1011.9 |
| 20260509093004 | 52 | 0 | 0.0 | 0.0 | 0.00 | 0.02 | 0.00 | 88 | 1012.0 |
| 20260509092506 | 53 | 0 | 0.0 | 0.0 | 0.00 | 0.02 | 0.00 | 88 | 1012.2 |
| 20260509092004 | 53 | 0 | 0.0 | 0.0 | 0.00 | 0.02 | 0.00 | 87 | 1012.2 |
| 20260509091505 | 53 | 0 | 0.0 | 1.0 | 0.00 | 0.02 | 0.00 | 87 | 1012.1 |
| 20260509091025 | 53 | 177 | 0.0 | 1.0 | 0.00 | 0.02 | 0.00 | 87 | 1012.0 |
| 20260509090505 | 53 | 0 | 0.0 | 2.0 | 0.00 | 0.02 | 0.00 | 87 | 1011.8 |
| 20260509090006 | 53 | 177 | 0.0 | 3.0 | 0.00 | 0.02 | 0.00 | 87 | 1011.6 |
| 20260509085504 | 53 | 177 | 0.0 | 5.0 | 0.00 | 0.02 | 0.00 | 86 | 1011.5 |
| 20260509085004 | 53 | 147 | 2.0 | 5.0 | 0.00 | 0.02 | 0.00 | 87 | 1011.6 |
| 20260509084506 | 53 | 161 | 0.0 | 3.0 | 0.00 | 0.02 | 0.00 | 86 | 1011.7 |
| 20260509084005 | 53 | 161 | 1.0 | 3.0 | 0.00 | 0.02 | 0.00 | 86 | 1011.9 |
| 20260509083505 | 54 | 161 | 1.0 | 3.0 | 0.00 | 0.02 | 0.00 | 86 | 1012.0 |
| 20260509083004 | 54 | 161 | 0.0 | 3.0 | 0.00 | 0.02 | 0.00 | 84 | 1011.9 |
| 20260509082504 | 54 | 161 | 1.0 | 2.0 | 0.00 | 0.02 | 0.00 | 84 | 1012.1 |
| 20260509082005 | 54 | 0 | 0.0 | 2.0 | 0.00 | 0.02 | 0.00 | 84 | 1011.9 |
| 20260509081505 | 54 | 161 | 1.0 | 2.0 | 0.00 | 0.02 | 0.00 | 83 | 1012.0 |
| 20260509081005 | 54 | 161 | 1.0 | 2.0 | 0.00 | 0.02 | 0.00 | 83 | 1012.2 |
| 20260509080505 | 54 | 0 | 0.0 | 0.0 | 0.00 | 0.02 | 0.00 | 83 | 1012.1 |
| 20260509080005 | 54 | 0 | 0.0 | 0.0 | 0.00 | 0.02 | 0.00 | 83 | 1012.1 |
| 20260509075505 | 54 | 0 | 0.0 | 0.0 | 0.00 | 0.02 | 0.00 | 82 | 1012.2 |
| 20260509075025 | 54 | 0 | 0.0 | 0.0 | 0.00 | 0.02 | 0.00 | 82 | 1012.2 |
| 20260509074504 | 54 | 0 | 0.0 | 0.0 | 0.00 | 0.02 | 0.00 | 82 | 1012.3 |
| 20260509074004 | 54 | 0 | 0.0 | 0.0 | 0.00 | 0.02 | 0.00 | 81 | 1012.2 |
| 20260509073504 | 54 | 0 | 0.0 | 0.0 | 0.00 | 0.02 | 0.00 | 81 | 1012.2 |
| 20260509073005 | 55 | 0 | 0.0 | 0.0 | 0.00 | 0.02 | 0.00 | 79 | 1012.3 |
| 20260509072504 | 55 | 0 | 0.0 | 0.0 | 0.00 | 0.02 | 0.00 | 78 | 1012.5 |
| 20260509072005 | 55 | 0 | 0.0 | 0.0 | 0.00 | 0.02 | 0.00 | 78 | 1012.5 |
| 20260509071525 | 56 | 0 | 0.0 | 2.0 | 0.00 | 0.02 | 0.00 | 77 | 1012.7 |
| 20260509071006 | 56 | 161 | 0.0 | 2.0 | 0.00 | 0.02 | 0.00 | 76 | 1012.8 |
| 20260509070505 | 57 | 161 | 0.0 | 4.0 | 0.00 | 0.02 | 0.00 | 75 | 1012.8 |
| 20260509070005 | 57 | 161 | 1.0 | 4.0 | 0.00 | 0.02 | 0.00 | 74 | 1012.7 |
| 20260509065505 | 57 | 167 | 2.0 | 6.0 | 0.00 | 0.02 | 0.00 | 72 | 1012.8 |
| 20260509065005 | 58 | 147 | 3.0 | 6.0 | 0.00 | 0.02 | 0.00 | 72 | 1012.9 |
| 20260509064505 | 58 | 165 | 2.0 | 5.0 | 0.00 | 0.02 | 0.00 | 71 | 1013.0 |
| 20260509064005 | 58 | 156 | 3.0 | 7.0 | 0.00 | 0.02 | 0.00 | 71 | 1013.2 |
| 20260509063504 | 58 | 175 | 3.0 | 7.0 | 0.00 | 0.02 | 0.00 | 70 | 1013.1 |
| 20260509063004 | 58 | 170 | 4.0 | 7.0 | 0.00 | 0.02 | 0.00 | 70 | 1013.2 |
| 20260509062504 | 58 | 169 | 2.0 | 7.0 | 0.00 | 0.02 | 0.00 | 71 | 1013.3 |
| 20260509062005 | 57 | 179 | 3.0 | 7.0 | 0.00 | 0.02 | 0.00 | 71 | 1013.3 |
| 20260509061527 | 57 | 168 | 3.0 | 7.0 | 0.00 | 0.02 | 0.00 | 72 | 1013.3 |
| 20260509061004 | 56 | 156 | 3.0 | 7.0 | 0.00 | 0.02 | 0.00 | 74 | 1013.3 |
| 20260509060506 | 56 | 169 | 4.0 | 7.0 | 0.00 | 0.02 | 0.00 | 75 | 1013.4 |
| 20260509060005 | 56 | 167 | 3.0 | 7.0 | 0.00 | 0.02 | 0.00 | 77 | 1013.5 |
| 20260509055525 | 56 | 0 | 0.0 | 0.0 | 0.00 | 0.02 | 0.00 | 78 | 1013.7 |
| 20260509055005 | 56 | 0 | 0.0 | 1.0 | 0.00 | 0.02 | 0.00 | 77 | 1013.7 |
| 20260509054505 | 56 | 0 | 0.0 | 1.0 | 0.00 | 0.02 | 0.00 | 77 | 1013.8 |
| 20260509054006 | 56 | 181 | 0.0 | 1.0 | 0.00 | 0.02 | 0.00 | 78 | 1014.0 |
| 20260509053505 | 56 | 0 | 0.0 | 0.0 | 0.00 | 0.02 | 0.00 | 78 | 1014.0 |
| 20260509053004 | 56 | 0 | 0.0 | 0.0 | 0.00 | 0.02 | 0.00 | 78 | 1014.0 |
| 20260509052504 | 56 | 0 | 0.0 | 1.0 | 0.00 | 0.02 | 0.00 | 77 | 1014.0 |
| 20260509052004 | 56 | 0 | 0.0 | 1.0 | 0.00 | 0.02 | 0.00 | 77 | 1014.1 |
| 20260509051505 | 56 | 0 | 0.0 | 2.0 | 0.00 | 0.02 | 0.00 | 77 | 1014.2 |
| 20260509051006 | 56 | 0 | 0.0 | 2.0 | 0.00 | 0.02 | 0.00 | 76 | 1014.1 |
| 20260509050504 | 57 | 0 | 0.0 | 0.0 | 0.00 | 0.02 | 0.00 | 77 | 1014.1 |
| 20260509050004 | 57 | 0 | 0.0 | 0.0 | 0.00 | 0.02 | 0.00 | 77 | 1014.1 |
| 20260509045505 | 57 | 0 | 0.0 | 2.0 | 0.00 | 0.02 | 0.00 | 77 | 1014.5 |
| 20260509045026 | 58 | 0 | 0.0 | 2.0 | 0.00 | 0.02 | 0.00 | 76 | 1014.4 |
| 20260509044506 | 58 | 175 | 1.0 | 2.0 | 0.00 | 0.02 | 0.00 | 76 | 1014.3 |
| 20260509044006 | 58 | 175 | 0.0 | 3.0 | 0.00 | 0.02 | 0.00 | 75 | 1014.3 |
| 20260509043526 | 59 | 175 | 0.0 | 4.0 | 0.00 | 0.02 | 0.00 | 74 | 1014.5 |
| 20260509043005 | 58 | 160 | 2.0 | 6.0 | 0.00 | 0.02 | 0.00 | 72 | 1014.6 |
| 20260509042506 | 59 | 158 | 2.0 | 6.0 | 0.00 | 0.02 | 0.00 | 74 | 1014.6 |
| 20260509042005 | 59 | 170 | 1.0 | 4.0 | 0.00 | 0.02 | 0.00 | 74 | 1014.7 |
| 20260509041506 | 59 | 170 | 2.0 | 4.0 | 0.00 | 0.02 | 0.00 | 74 | 1014.6 |
| 20260509041004 | 59 | 159 | 2.0 | 6.0 | 0.00 | 0.02 | 0.00 | 72 | 1014.7 |
| 20260509040525 | 59 | 157 | 3.0 | 6.0 | 0.00 | 0.02 | 0.00 | 72 | 1014.8 |
| 20260509040005 | 59 | 191 | 2.0 | 5.0 | 0.00 | 0.02 | 0.00 | 74 | 1014.7 |
| 20260509035505 | 59 | 128 | 2.0 | 4.0 | 0.00 | 0.02 | 0.02 | 75 | 1014.7 |
| 20260509035026 | 59 | 223 | 1.0 | 6.0 | 0.00 | 0.02 | 0.02 | 76 | 1014.8 |
| 20260509034525 | 58 | 161 | 2.0 | 6.0 | 0.00 | 0.02 | 0.02 | 76 | 1014.6 |
| 20260509034004 | 58 | 153 | 1.0 | 3.0 | 0.00 | 0.02 | 0.02 | 77 | 1014.6 |
| 20260509033505 | 58 | 153 | 1.0 | 2.0 | 0.00 | 0.02 | 0.02 | 76 | 1014.5 |
| 20260509033005 | 59 | 153 | 0.0 | 2.0 | 0.00 | 0.02 | 0.02 | 75 | 1014.3 |
| 20260509032526 | 59 | 153 | 0.0 | 3.0 | 0.00 | 0.02 | 0.02 | 75 | 1014.3 |
| 20260509032005 | 59 | 153 | 0.0 | 3.0 | 0.00 | 0.02 | 0.02 | 75 | 1014.4 |
| 20260509031505 | 59 | 153 | 1.0 | 3.0 | 0.00 | 0.02 | 0.02 | 74 | 1014.4 |
| 20260509031027 | 59 | 153 | 0.0 | 3.0 | 0.00 | 0.02 | 0.02 | 74 | 1014.4 |
| 20260509030504 | 59 | 153 | 1.0 | 2.0 | 0.00 | 0.02 | 0.02 | 74 | 1014.6 |
| 20260509030005 | 59 | 153 | 2.0 | 2.0 | 0.00 | 0.02 | 0.02 | 75 | 1014.5 |
| 20260509025506 | 59 | 0 | 0.0 | 0.0 | 0.00 | 0.02 | 0.02 | 74 | 1014.7 |
| 20260509025004 | 59 | 0 | 0.0 | 0.0 | 0.00 | 0.02 | 0.02 | 74 | 1014.7 |
| 20260509024505 | 59 | 0 | 0.0 | 1.0 | 0.00 | 0.02 | 0.02 | 72 | 1014.7 |
| 20260509024005 | 59 | 0 | 0.0 | 1.0 | 0.00 | 0.02 | 0.02 | 71 | 1014.8 |
| 20260509023505 | 60 | 0 | 0.0 | 1.0 | 0.00 | 0.02 | 0.02 | 71 | 1014.8 |
| 20260509023025 | 60 | 153 | 1.0 | 1.0 | 0.00 | 0.02 | 0.02 | 71 | 1014.9 |
| 20260509022505 | 60 | 153 | 0.0 | 2.0 | 0.00 | 0.02 | 0.02 | 71 | 1014.9 |
| 20260509022005 | 60 | 153 | 0.0 | 2.0 | 0.00 | 0.02 | 0.02 | 71 | 1014.9 |
| 20260509021506 | 60 | 153 | 0.0 | 1.0 | 0.00 | 0.02 | 0.02 | 72 | 1015.0 |
| 20260509021005 | 60 | 0 | 0.0 | 0.0 | 0.00 | 0.02 | 0.02 | 71 | 1015.1 |
| 20260509020504 | 60 | 0 | 0.0 | 0.0 | 0.00 | 0.02 | 0.02 | 70 | 1015.0 |
| 20260509020005 | 60 | 0 | 0.0 | 2.0 | 0.00 | 0.02 | 0.02 | 70 | 1014.8 |
| 20260509015504 | 60 | 0 | 0.0 | 2.0 | 0.00 | 0.02 | 0.02 | 70 | 1014.6 |
| 20260509015006 | 60 | 0 | 0.0 | 0.0 | 0.00 | 0.02 | 0.02 | 70 | 1014.7 |
| 20260509014526 | 60 | 0 | 0.0 | 0.0 | 0.00 | 0.02 | 0.02 | 70 | 1014.6 |
| 20260509014005 | 61 | 0 | 0.0 | 1.0 | 0.00 | 0.02 | 0.02 | 69 | 1014.6 |
| 20260509013505 | 61 | 153 | 0.0 | 1.0 | 0.00 | 0.02 | 0.02 | 69 | 1014.6 |
| 20260509013006 | 61 | 0 | 0.0 | 1.0 | 0.00 | 0.02 | 0.02 | 68 | 1014.5 |
| 20260509012504 | 61 | 0 | 0.0 | 4.0 | 0.00 | 0.02 | 0.02 | 67 | 1014.4 |
| 20260509012005 | 61 | 153 | 1.0 | 4.0 | 0.00 | 0.02 | 0.02 | 65 | 1014.4 |
| 20260509011504 | 62 | 154 | 2.0 | 4.0 | 0.00 | 0.02 | 0.02 | 67 | 1014.5 |
| 20260509011005 | 62 | 154 | 2.0 | 4.0 | 0.00 | 0.02 | 0.02 | 65 | 1014.3 |
| 20260509010505 | 62 | 154 | 0.0 | 1.0 | 0.00 | 0.02 | 0.02 | 65 | 1014.3 |
| 20260509005503 | 62 | 0 | 0.0 | 1.0 | 0.00 | 0.02 | 0.02 | 64 | 1014.2 |
| 20260509005004 | 62 | 154 | 0.0 | 2.0 | 0.00 | 0.02 | 0.02 | 64 | 1014.2 |
| 20260509004503 | 62 | 154 | 0.0 | 2.0 | 0.00 | 0.02 | 0.02 | 65 | 1014.2 |
| 20260509004024 | 62 | 154 | 0.0 | 3.0 | 0.00 | 0.02 | 0.02 | 64 | 1014.1 |
| 20260509003502 | 62 | 154 | 0.0 | 3.0 | 0.00 | 0.02 | 0.02 | 63 | 1014.0 |
| 20260509003002 | 62 | 0 | 0.0 | 1.0 | 0.00 | 0.02 | 0.02 | 62 | 1014.0 |
| 20260509002503 | 63 | 154 | 0.0 | 2.0 | 0.00 | 0.02 | 0.02 | 62 | 1014.1 |
| 20260509002025 | 63 | 154 | 1.0 | 2.0 | 0.00 | 0.02 | 0.02 | 63 | 1014.0 |
| 20260509001503 | 63 | 154 | 0.0 | 2.0 | 0.00 | 0.02 | 0.02 | 61 | 1013.8 |
| 20260509001003 | 64 | 154 | 1.0 | 3.0 | 0.00 | 0.02 | 0.02 | 60 | 1013.8 |
| 20260509000502 | 64 | 154 | 1.0 | 4.0 | 0.00 | 0.02 | 0.02 | 59 | 1013.8 |
| 20260509000023 | 64 | 0 | 0.0 | 4.0 | 0.00 | 0.02 | 0.02 | 58 | 1013.9 |
| 20260508235503 | 64 | 0 | 0.0 | 2.0 | 0.00 | 0.02 | 0.02 | 59 | 1013.9 |
| 20260508235024 | 64 | 154 | 1.0 | 2.0 | 0.00 | 0.02 | 0.02 | 58 | 1013.7 |
| 20260508234504 | 65 | 0 | 0.0 | 2.0 | 0.00 | 0.02 | 0.02 | 58 | 1013.7 |
| 20260508234003 | 65 | 153 | 0.0 | 2.0 | 0.00 | 0.02 | 0.02 | 57 | 1013.7 |
| 20260508233503 | 65 | 153 | 0.0 | 2.0 | 0.00 | 0.02 | 0.02 | 56 | 1013.7 |
| 20260508233023 | 66 | 153 | 0.0 | 4.0 | 0.00 | 0.02 | 0.02 | 57 | 1013.6 |
| 20260508232523 | 66 | 153 | 1.0 | 4.0 | 0.00 | 0.02 | 0.02 | 56 | 1013.6 |
| 20260508232004 | 67 | 163 | 1.0 | 5.0 | 0.00 | 0.02 | 0.02 | 55 | 1013.6 |
| 20260508231503 | 67 | 163 | 1.0 | 7.0 | 0.00 | 0.02 | 0.02 | 51 | 1013.6 |
| 20260508231004 | 67 | 166 | 4.0 | 7.0 | 0.00 | 0.02 | 0.02 | 48 | 1013.6 |
| 20260508230503 | 68 | 164 | 5.0 | 7.0 | 0.00 | 0.02 | 0.02 | 49 | 1013.6 |
| 20260508230002 | 68 | 174 | 3.0 | 5.0 | 0.00 | 0.02 | 0.02 | 48 | 1013.7 |
| 20260508225504 | 68 | 145 | 2.0 | 5.0 | 0.00 | 0.02 | 0.02 | 50 | 1013.6 |
| 20260508225003 | 68 | 163 | 3.0 | 7.0 | 0.00 | 0.02 | 0.02 | 48 | 1013.7 |
| 20260508224503 | 68 | 163 | 5.0 | 7.0 | 0.00 | 0.02 | 0.02 | 46 | 1013.8 |
| 20260508224002 | 68 | 165 | 4.0 | 8.0 | 0.00 | 0.02 | 0.02 | 45 | 1013.8 |
| 20260508223504 | 68 | 162 | 4.0 | 8.0 | 0.00 | 0.02 | 0.02 | 46 | 1013.7 |
| 20260508223004 | 68 | 153 | 2.0 | 7.0 | 0.00 | 0.02 | 0.02 | 45 | 1013.8 |
| 20260508222502 | 68 | 162 | 4.0 | 10.0 | 0.00 | 0.02 | 0.02 | 45 | 1013.8 |
| 20260508222003 | 68 | 150 | 4.0 | 12.0 | 0.00 | 0.02 | 0.02 | 47 | 1013.8 |
| 20260508221502 | 68 | 171 | 3.0 | 12.0 | 0.00 | 0.02 | 0.02 | 45 | 1013.8 |
| 20260508221003 | 68 | 166 | 6.0 | 12.0 | 0.00 | 0.02 | 0.02 | 43 | 1013.8 |
| 20260508220503 | 69 | 167 | 6.0 | 12.0 | 0.00 | 0.02 | 0.02 | 44 | 1013.8 |
| 20260508220004 | 69 | 167 | 5.0 | 12.0 | 0.00 | 0.02 | 0.02 | 43 | 1014.0 |
| 20260508215503 | 69 | 164 | 6.0 | 12.0 | 0.00 | 0.02 | 0.02 | 44 | 1013.8 |
| 20260508215024 | 69 | 193 | 3.0 | 13.0 | 0.00 | 0.02 | 0.02 | 44 | 1013.8 |
| 20260508214523 | 69 | 175 | 6.0 | 13.0 | 0.00 | 0.02 | 0.02 | 43 | 1013.8 |
| 20260508214023 | 69 | 178 | 5.0 | 12.0 | 0.00 | 0.02 | 0.02 | 43 | 1013.8 |
| 20260508213503 | 70 | 166 | 7.0 | 12.0 | 0.00 | 0.02 | 0.02 | 42 | 1013.8 |
| 20260508213004 | 70 | 170 | 6.0 | 12.0 | 0.00 | 0.02 | 0.02 | 43 | 1013.6 |
| 20260508212524 | 70 | 174 | 6.0 | 13.0 | 0.00 | 0.02 | 0.02 | 42 | 1013.6 |
| 20260508212002 | 70 | 165 | 7.0 | 13.0 | 0.00 | 0.02 | 0.02 | 43 | 1013.8 |
| 20260508211503 | 70 | 162 | 6.0 | 12.0 | 0.00 | 0.02 | 0.02 | 43 | 1013.8 |
| 20260508211023 | 70 | 143 | 3.0 | 9.0 | 0.00 | 0.02 | 0.02 | 43 | 1013.7 |
| 20260508210502 | 70 | 173 | 5.0 | 9.0 | 0.00 | 0.02 | 0.02 | 42 | 1013.9 |
| 20260508210003 | 70 | 133 | 3.0 | 7.0 | 0.00 | 0.02 | 0.02 | 44 | 1014.0 |
| 20260508205503 | 71 | 156 | 2.0 | 7.0 | 0.00 | 0.02 | 0.02 | 42 | 1014.0 |
| 20260508205003 | 71 | 153 | 2.0 | 9.0 | 0.00 | 0.02 | 0.02 | 40 | 1014.0 |
| 20260508204503 | 71 | 143 | 4.0 | 13.0 | 0.00 | 0.02 | 0.02 | 43 | 1014.2 |
| 20260508204003 | 71 | 150 | 6.0 | 13.0 | 0.00 | 0.02 | 0.02 | 41 | 1014.2 |
| 20260508203502 | 70 | 170 | 5.0 | 11.0 | 0.00 | 0.02 | 0.02 | 40 | 1014.1 |
| 20260508203023 | 70 | 157 | 1.0 | 8.0 | 0.00 | 0.02 | 0.02 | 38 | 1014.1 |
| 20260508202524 | 70 | 75 | 1.0 | 8.0 | 0.00 | 0.02 | 0.02 | 38 | 1014.0 |
| 20260508202003 | 70 | 168 | 4.0 | 7.0 | 0.00 | 0.02 | 0.02 | 40 | 1014.1 |
| 20260508201504 | 70 | 272 | 2.0 | 11.0 | 0.00 | 0.02 | 0.02 | 38 | 1014.2 |
| 20260508201024 | 70 | 195 | 5.0 | 12.0 | 0.00 | 0.02 | 0.02 | 38 | 1014.4 |
| 20260508200504 | 71 | 175 | 6.0 | 14.0 | 0.00 | 0.02 | 0.02 | 38 | 1014.4 |
| 20260508200003 | 71 | 179 | 8.0 | 14.0 | 0.00 | 0.02 | 0.02 | 38 | 1014.5 |
| 20260508195502 | 70 | 157 | 4.0 | 9.0 | 0.01 | 0.02 | 0.02 | 39 | 1014.5 |
| 20260508195004 | 70 | 156 | 3.0 | 7.0 | 0.01 | 0.02 | 0.02 | 40 | 1014.4 |
| 20260508194502 | 71 | 167 | 2.0 | 7.0 | 0.01 | 0.02 | 0.02 | 36 | 1014.5 |
| 20260508194003 | 72 | 68 | 2.0 | 8.0 | 0.01 | 0.02 | 0.02 | 37 | 1014.7 |
| 20260508193504 | 72 | 356 | 1.0 | 8.0 | 0.01 | 0.02 | 0.02 | 40 | 1015.0 |
| 20260508193024 | 71 | 266 | 2.0 | 8.0 | 0.01 | 0.03 | 0.02 | 42 | 1015.1 |
| 20260508192525 | 71 | 238 | 3.0 | 12.0 | 0.02 | 0.03 | 0.02 | 38 | 1015.2 |
| 20260508192003 | 71 | 234 | 3.0 | 12.0 | 0.02 | 0.03 | 0.02 | 37 | 1015.2 |
| 20260508191502 | 72 | 176 | 6.0 | 12.0 | 0.02 | 0.03 | 0.02 | 40 | 1015.4 |
| 20260508191003 | 71 | 150 | 3.0 | 12.0 | 0.02 | 0.04 | 0.02 | 38 | 1015.5 |
| 20260508190502 | 71 | 161 | 6.0 | 12.0 | 0.02 | 0.04 | 0.02 | 38 | 1015.4 |
| 20260508190002 | 71 | 173 | 4.0 | 12.0 | 0.02 | 0.04 | 0.02 | 39 | 1015.6 |
| 20260508185524 | 70 | 184 | 6.0 | 13.0 | 0.01 | 0.03 | 0.01 | 37 | 1015.6 |
| 20260508185025 | 70 | 220 | 6.0 | 13.0 | 0.01 | 0.03 | 0.01 | 36 | 1015.6 |
| 20260508184504 | 70 | 176 | 4.0 | 11.0 | 0.01 | 0.03 | 0.01 | 38 | 1015.6 |
| 20260508184003 | 70 | 319 | 2.0 | 6.0 | 0.01 | 0.03 | 0.01 | 42 | 1015.7 |
| 20260508183503 | 70 | 214 | 1.0 | 8.0 | 0.01 | 0.03 | 0.01 | 36 | 1015.8 |
| 20260508183004 | 70 | 226 | 2.0 | 12.0 | 0.01 | 0.03 | 0.01 | 36 | 1015.9 |
| 20260508182503 | 70 | 175 | 6.0 | 12.0 | 0.00 | 0.02 | 0.00 | 35 | 1015.9 |
| 20260508182025 | 70 | 65 | 2.0 | 7.0 | 0.00 | 0.02 | 0.00 | 37 | 1015.8 |
| 20260508181504 | 69 | 279 | 2.0 | 10.0 | 0.00 | 0.02 | 0.00 | 37 | 1015.9 |
| 20260508181003 | 69 | 169 | 4.0 | 10.0 | 0.00 | 0.02 | 0.00 | 36 | 1016.0 |
| 20260508180504 | 70 | 212 | 4.0 | 9.0 | 0.00 | 0.02 | 0.00 | 41 | 1016.1 |
| 20260508180003 | 69 | 344 | 2.0 | 5.0 | 0.00 | 0.02 | 0.00 | 32 | 1016.1 |
| 20260508175503 | 69 | 268 | 2.0 | 7.0 | 0.00 | 0.02 | 0.00 | 38 | 1016.1 |
| 20260508175002 | 68 | 30 | 1.0 | 7.0 | 0.00 | 0.02 | 0.00 | 39 | 1016.2 |
| 20260508174524 | 69 | 31 | 4.0 | 7.0 | 0.00 | 0.02 | 0.00 | 38 | 1016.2 |
| 20260508174003 | 69 | 189 | 2.0 | 8.0 | 0.00 | 0.02 | 0.00 | 38 | 1016.3 |
| 20260508173504 | 68 | 91 | 2.0 | 8.0 | 0.00 | 0.02 | 0.00 | 37 | 1016.5 |
| 20260508173003 | 68 | 217 | 5.0 | 8.0 | 0.00 | 0.02 | 0.00 | 39 | 1016.5 |
| 20260508172503 | 68 | 204 | 5.0 | 7.0 | 0.00 | 0.02 | 0.00 | 44 | 1016.6 |
| 20260508172025 | 68 | 261 | 3.0 | 9.0 | 0.00 | 0.02 | 0.00 | 38 | 1016.6 |
| 20260508171524 | 68 | 200 | 5.0 | 9.0 | 0.00 | 0.02 | 0.00 | 42 | 1016.7 |
| 20260508171003 | 67 | 226 | 3.0 | 11.0 | 0.00 | 0.02 | 0.00 | 42 | 1016.9 |
| 20260508170502 | 66 | 37 | 5.0 | 11.0 | 0.00 | 0.02 | 0.00 | 35 | 1016.9 |
| 20260508170025 | 68 | 39 | 4.0 | 9.0 | 0.00 | 0.02 | 0.00 | 35 | 1017.1 |
| 20260508165504 | 68 | 36 | 4.0 | 8.0 | 0.00 | 0.02 | 0.00 | 40 | 1017.3 |
| 20260508165002 | 68 | 157 | 3.0 | 8.0 | 0.00 | 0.02 | 0.00 | 38 | 1017.2 |
| 20260508164524 | 68 | 145 | 3.0 | 8.0 | 0.00 | 0.02 | 0.00 | 40 | 1017.3 |
| 20260508164024 | 67 | 233 | 3.0 | 5.0 | 0.00 | 0.02 | 0.00 | 44 | 1017.2 |
| 20260508163503 | 67 | 261 | 3.0 | 8.0 | 0.00 | 0.02 | 0.00 | 39 | 1017.3 |
| 20260508163023 | 66 | 41 | 3.0 | 10.0 | 0.00 | 0.02 | 0.00 | 43 | 1017.3 |
| 20260508162502 | 66 | 32 | 5.0 | 10.0 | 0.00 | 0.02 | 0.00 | 40 | 1017.3 |
| 20260508162003 | 67 | 91 | 2.0 | 6.0 | 0.00 | 0.02 | 0.00 | 40 | 1017.4 |
| 20260508161503 | 66 | 212 | 3.0 | 6.0 | 0.00 | 0.02 | 0.00 | 45 | 1017.5 |
| 20260508161003 | 66 | 339 | 2.0 | 7.0 | 0.00 | 0.02 | 0.00 | 38 | 1017.5 |
| 20260508160503 | 66 | 260 | 4.0 | 7.0 | 0.00 | 0.02 | 0.00 | 42 | 1017.6 |
| 20260508160004 | 67 | 185 | 2.0 | 7.0 | 0.00 | 0.02 | 0.00 | 46 | 1017.7 |
| 20260508155524 | 66 | 149 | 3.0 | 7.0 | 0.00 | 0.02 | 0.00 | 43 | 1017.7 |
| 20260508155004 | 66 | 174 | 3.0 | 11.0 | 0.00 | 0.02 | 0.00 | 46 | 1017.7 |
| 20260508154503 | 65 | 38 | 2.0 | 14.0 | 0.00 | 0.02 | 0.00 | 47 | 1017.8 |
| 20260508154025 | 65 | 29 | 9.0 | 14.0 | 0.00 | 0.02 | 0.00 | 51 | 1017.8 |
| 20260508153503 | 64 | 48 | 4.0 | 12.0 | 0.00 | 0.02 | 0.00 | 47 | 1017.9 |
| 20260508153003 | 65 | 178 | 2.0 | 12.0 | 0.00 | 0.02 | 0.00 | 46 | 1017.9 |
| 20260508152503 | 64 | 38 | 6.0 | 9.0 | 0.00 | 0.02 | 0.00 | 48 | 1017.8 |
| 20260508152004 | 64 | 92 | 1.0 | 6.0 | 0.00 | 0.02 | 0.00 | 44 | 1017.8 |
| 20260508151524 | 64 | 54 | 1.0 | 9.0 | 0.00 | 0.02 | 0.00 | 47 | 1017.8 |
| 20260508151003 | 64 | 35 | 6.0 | 12.0 | 0.00 | 0.02 | 0.00 | 44 | 1017.8 |
| 20260508150525 | 64 | 18 | 7.0 | 12.0 | 0.00 | 0.02 | 0.00 | 51 | 1017.8 |
| 20260508150003 | 64 | 31 | 4.0 | 10.0 | 0.00 | 0.02 | 0.00 | 49 | 1017.8 |
| 20260508145503 | 64 | 32 | 5.0 | 10.0 | 0.00 | 0.02 | 0.00 | 53 | 1017.8 |
| 20260508145025 | 63 | 340 | 2.0 | 11.0 | 0.00 | 0.02 | 0.00 | 55 | 1017.9 |
| 20260508144503 | 63 | 39 | 7.0 | 11.0 | 0.00 | 0.02 | 0.00 | 48 | 1018.0 |
| 20260508144003 | 63 | 21 | 5.0 | 8.0 | 0.00 | 0.02 | 0.00 | 56 | 1018.1 |
| 20260508143525 | 63 | 30 | 3.0 | 8.0 | 0.00 | 0.02 | 0.00 | 53 | 1018.0 |
| 20260508143004 | 63 | 146 | 1.0 | 7.0 | 0.00 | 0.02 | 0.00 | 48 | 1018.0 |
| 20260508142503 | 63 | 52 | 2.0 | 7.0 | 0.00 | 0.02 | 0.00 | 49 | 1018.1 |
| 20260508142003 | 63 | 170 | 1.0 | 5.0 | 0.00 | 0.02 | 0.00 | 55 | 1018.0 |
| 20260508141503 | 62 | 128 | 2.0 | 8.0 | 0.00 | 0.02 | 0.00 | 60 | 1018.1 |
| 20260508141003 | 62 | 19 | 5.0 | 8.0 | 0.00 | 0.02 | 0.00 | 63 | 1018.0 |
| 20260508140525 | 61 | 8 | 0.0 | 6.0 | 0.00 | 0.02 | 0.00 | 58 | 1018.1 |
| 20260508140003 | 61 | 8 | 4.0 | 10.0 | 0.00 | 0.02 | 0.00 | 64 | 1018.1 |
| 20260508135504 | 60 | 39 | 6.0 | 11.0 | 0.00 | 0.02 | 0.00 | 60 | 1018.1 |
| 20260508135003 | 61 | 12 | 7.0 | 11.0 | 0.00 | 0.02 | 0.00 | 63 | 1018.1 |
| 20260508134504 | 60 | 25 | 3.0 | 8.0 | 0.00 | 0.02 | 0.00 | 63 | 1018.0 |
| 20260508134003 | 60 | 26 | 4.0 | 7.0 | 0.00 | 0.02 | 0.00 | 62 | 1017.9 |
| 20260508133502 | 60 | 40 | 3.0 | 6.0 | 0.00 | 0.02 | 0.00 | 61 | 1018.0 |
| 20260508133003 | 59 | 29 | 2.0 | 10.0 | 0.00 | 0.02 | 0.00 | 69 | 1018.0 |
| 20260508132503 | 59 | 26 | 6.0 | 10.0 | 0.00 | 0.02 | 0.00 | 63 | 1017.8 |
| 20260508132004 | 58 | 23 | 6.0 | 9.0 | 0.00 | 0.02 | 0.00 | 69 | 1017.9 |